Location: Bun
(42.9667°N, 0.1500°W)
Time: 03:34:26
(UTC+00:00)

Cosmos 2227 - Pass Details

Date: 03 February 2023
Orbit: 833 x 862 km, 71.0° (Epoch: 26 March)

Event Time Altitude Azimuth Distance (km) Brightness Sun altitude
Rises 17:54:15 0° 334° (NNW) 3,449 7.5 -7.5°
Reaches altitude 10° 17:56:43 10° 334° (NNW) 2,509 6.8 -8.0°
Maximum altitude 18:02:30 85° 247° (WSW) 872 4.4 -9.0°
Drops below altitude 10° 18:08:15 10° 160° (SSE) 2,490 6.6 -10.0°
Sets 18:10:41 0° 159° (SSE) 3,420 7.3 -10.5°
